Time,TemperatureF,DewpointF,PressureIn,WindDirection,WindDirectionDegrees,WindSpeedMPH,WindSpeedGustMPH,Humidity,HourlyPrecipIn,Conditions,Clouds,dailyrainin,SoftwareType,DateUTC
2013-07-13 00:11:00,66.9,56.8,30.10,NE,50,3.0,3.0,70,0.00,CLR,CLR,0.00,WeatherDisplay:10.37,2013-07-13 05:11:00,
2013-07-13 00:41:00,64.9,55.7,30.10,NE,50,0.0,0.0,72,0.00,CLR,CLR,0.00,WeatherDisplay:10.37,2013-07-13 05:41:00,
2013-07-13 01:11:00,64.9,55.7,30.10,NE,50,0.0,0.0,72,0.00,CLR,CLR,0.00,WeatherDisplay:10.37,2013-07-13 06:11:00,
2013-07-13 01:41:00,64.9,52.9,30.09,East,90,5.0,5.0,65,0.00,CLR,CLR,0.00,WeatherDisplay:10.37,2013-07-13 06:41:00,
2013-07-13 02:11:00,64.9,52.9,30.09,East,90,5.0,5.0,65,0.00,CLR,CLR,0.00,WeatherDisplay:10.37,2013-07-13 07:11:00,
2013-07-13 02:41:00,63.0,54.9,30.10,East,90,0.0,0.0,75,0.00,CLR,CLR,0.00,WeatherDisplay:10.37,2013-07-13 07:41:00,
2013-07-13 03:11:00,63.0,54.9,30.10,East,90,0.0,0.0,75,0.00,CLR,CLR,0.00,WeatherDisplay:10.37,2013-07-13 08:11:00,
2013-07-13 03:41:00,63.0,54.9,30.12,East,90,0.0,0.0,75,0.00,CLR,CLR,0.00,WeatherDisplay:10.37,2013-07-13 08:41:00,
2013-07-13 04:11:00,63.0,54.9,30.12,East,90,0.0,0.0,75,0.00,CLR,CLR,0.00,WeatherDisplay:10.37,2013-07-13 09:11:00,
2013-07-13 04:41:00,62.1,55.8,30.12,East,90,0.0,0.0,80,0.00,CLR,CLR,0.00,WeatherDisplay:10.37,2013-07-13 09:41:00,
2013-07-13 05:11:00,62.1,55.8,30.12,East,90,0.0,0.0,80,0.00,CLR,CLR,0.00,WeatherDisplay:10.37,2013-07-13 10:11:00,
2013-07-13 05:41:00,60.1,55.9,30.11,East,90,0.0,0.0,86,0.00,CLR,CLR,0.00,WeatherDisplay:10.37,2013-07-13 10:41:00,
2013-07-13 06:11:00,60.1,55.9,30.11,East,90,0.0,0.0,86,0.00,CLR,CLR,0.00,WeatherDisplay:10.37,2013-07-13 11:11:00,
2013-07-13 06:41:00,62.1,56.8,30.11,East,80,3.0,3.0,83,0.00,CLR,CLR,0.00,WeatherDisplay:10.37,2013-07-13 11:41:00,
2013-07-13 07:11:00,62.1,56.8,30.11,East,80,3.0,3.0,83,0.00,CLR,CLR,0.00,WeatherDisplay:10.37,2013-07-13 12:11:00,
2013-07-13 07:41:00,64.9,60.0,30.13,East,80,0.0,0.0,84,0.00,CLR,CLR,0.00,WeatherDisplay:10.37,2013-07-13 12:41:00,
2013-07-13 08:11:00,64.9,60.0,30.13,East,80,0.0,0.0,84,0.00,CLR,CLR,0.00,WeatherDisplay:10.37,2013-07-13 13:11:00,
2013-07-13 08:41:00,71.1,60.0,30.13,ESE,110,6.0,6.0,68,0.00,CLR,CLR,0.00,WeatherDisplay:10.37,2013-07-13 13:41:00,
2013-07-13 09:11:00,71.1,60.0,30.13,ESE,110,6.0,6.0,68,0.00,CLR,CLR,0.00,WeatherDisplay:10.37,2013-07-13 14:11:00,
2013-07-13 09:41:00,75.0,58.8,30.15,ESE,120,7.0,7.0,57,0.00,CLR,CLR,0.00,WeatherDisplay:10.37,2013-07-13 14:41:00,
2013-07-13 10:11:00,75.0,58.8,30.15,ESE,120,7.0,7.0,57,0.00,CLR,CLR,0.00,WeatherDisplay:10.37,2013-07-13 15:11:00,
2013-07-13 10:41:00,77.0,58.6,30.14,South,170,7.0,7.0,53,0.00,CLR,CLR,0.00,WeatherDisplay:10.37,2013-07-13 15:41:00,
2013-07-13 11:11:00,77.0,58.6,30.14,South,170,7.0,7.0,53,0.00,CLR,CLR,0.00,WeatherDisplay:10.37,2013-07-13 16:11:00,
2013-07-13 11:41:00,79.0,57.6,30.14,ESE,120,6.0,6.0,48,0.00,CLR,CLR,0.00,WeatherDisplay:10.37,2013-07-13 16:41:00,
2013-07-13 12:11:00,79.0,57.6,30.14,ESE,120,6.0,6.0,48,0.00,CLR,CLR,0.00,WeatherDisplay:10.37,2013-07-13 17:11:00,
2013-07-13 12:41:00,81.0,58.8,30.13,ESE,120,6.0,6.0,47,0.00,CLR,CLR,0.00,WeatherDisplay:10.37,2013-07-13 17:41:00,
2013-07-13 13:11:00,81.0,58.8,30.13,ESE,120,6.0,6.0,47,0.00,CLR,CLR,0.00,WeatherDisplay:10.37,2013-07-13 18:11:00,
2013-07-13 13:41:00,82.0,58.6,30.12,ESE,120,6.0,6.0,45,0.00,CLR,CLR,0.00,WeatherDisplay:10.37,2013-07-13 18:41:00,
2013-07-13 14:11:00,82.0,58.6,30.12,ESE,120,6.0,6.0,45,0.00,CLR,CLR,0.00,WeatherDisplay:10.37,2013-07-13 19:11:00,
2013-07-13 14:41:00,84.0,58.5,30.11,ENE,60,8.0,8.0,42,0.00,FEW,FEW,0.00,WeatherDisplay:10.37,2013-07-13 19:41:00,
2013-07-13 15:11:00,84.0,58.5,30.11,ENE,60,8.0,8.0,42,0.00,FEW,FEW,0.00,WeatherDisplay:10.37,2013-07-13 20:11:00,
2013-07-13 15:41:00,84.0,55.7,30.10,ESE,120,8.0,8.0,38,0.00,FEW,FEW,0.00,WeatherDisplay:10.37,2013-07-13 20:41:00,
2013-07-13 16:11:00,84.0,55.7,30.10,ESE,120,8.0,8.0,38,0.00,FEW,FEW,0.00,WeatherDisplay:10.37,2013-07-13 21:11:00,
2013-07-13 16:41:00,84.0,54.9,30.09,ESE,120,0.0,0.0,37,0.00,CLR,CLR,0.00,WeatherDisplay:10.37,2013-07-13 21:41:00,
2013-07-13 17:11:00,84.0,54.9,30.09,ESE,120,0.0,0.0,37,0.00,CLR,CLR,0.00,WeatherDisplay:10.37,2013-07-13 22:11:00,
2013-07-13 17:41:00,84.0,56.4,30.09,ESE,120,9.0,9.0,39,0.00,FEW,FEW,0.00,WeatherDisplay:10.37,2013-07-13 22:41:00,
2013-07-13 18:11:00,84.0,56.4,30.09,ESE,120,9.0,9.0,39,0.00,FEW,FEW,0.00,WeatherDisplay:10.37,2013-07-13 23:11:00,
2013-07-13 18:41:00,82.9,58.8,30.08,ESE,110,8.0,8.0,44,0.00,CLR,CLR,0.00,WeatherDisplay:10.37,2013-07-13 23:41:00,
2013-07-13 19:11:00,82.9,58.8,30.08,ESE,110,8.0,8.0,44,0.00,CLR,CLR,0.00,WeatherDisplay:10.37,2013-07-14 00:11:00,
2013-07-13 19:41:00,82.0,59.8,30.08,ESE,110,7.0,7.0,47,0.00,CLR,CLR,0.00,WeatherDisplay:10.37,2013-07-14 00:41:00,
2013-07-13 20:11:00,82.0,59.8,30.08,ESE,110,7.0,7.0,47,0.00,CLR,CLR,0.00,WeatherDisplay:10.37,2013-07-14 01:11:00,
2013-07-13 20:41:00,79.0,59.9,30.08,East,90,7.0,7.0,52,0.00,CLR,CLR,0.00,WeatherDisplay:10.37,2013-07-14 01:41:00,
2013-07-13 21:11:00,79.0,59.9,30.08,East,90,7.0,7.0,52,0.00,CLR,CLR,0.00,WeatherDisplay:10.37,2013-07-14 02:11:00,
2013-07-13 21:41:00,77.0,59.6,30.10,East,90,5.0,5.0,55,0.00,CLR,CLR,0.00,WeatherDisplay:10.37,2013-07-14 02:41:00,
2013-07-13 22:11:00,77.0,59.6,30.10,East,90,5.0,5.0,55,0.00,CLR,CLR,0.00,WeatherDisplay:10.37,2013-07-14 03:11:00,
2013-07-13 22:41:00,75.9,60.6,30.11,East,90,7.0,7.0,59,0.00,CLR,CLR,0.00,WeatherDisplay:10.37,2013-07-14 03:41:00,
2013-07-13 23:11:00,75.9,60.6,30.11,East,90,7.0,7.0,59,0.00,CLR,CLR,0.00,WeatherDisplay:10.37,2013-07-14 04:11:00,
2013-07-13 23:41:00,75.0,62.0,30.12,East,80,7.0,7.0,64,0.00,CLR,CLR,0.00,WeatherDisplay:10.37,2013-07-14 04:41:00,